User: anonymous   Login
Location: Drummondville
(45.8830°N, 72.4830°W)
Time: 08:52:58
(UTC-05:00)
Language:

Tiangong 1 - Orbit

View from above orbital plane
View from above orbital plane
View from above satellite
View from above satellite

Ground track
Ground track

The orbit data is extracted from the following two-line orbital elements,

1 37820U 11053A   17323.18353878  .00056218  94217-5  16984-3 0  9990
2 37820  42.7546 323.4456 0017672 110.1237 344.3966 15.91799702352550
Epoch (UTC): 19 November 2017 04:24:17
Eccentricity: 0.0017672
inclination: 42.7546°
perigee height: 285 km
apogee height: 309 km
right ascension of ascending node: 323.4456°
argument of perigee: 110.1237°
revolutions per day: 15.91799702
mean anomaly at epoch: 344.3966°
orbit number at epoch: 35255

The dashed part of the orbit path shows where the satellite is in the earth's shadow,  

DLR